Location: ?
(35.4996°N, 139.3166°E)
Time: 18:59:52
(UTC+00:00)

Cosmos 1655 Rocket - Pass Details

Date: 18 April 2024
Orbit: 971 x 1004 km, 83.0° (Epoch: 27 May)

Event Time Altitude Azimuth Distance (km) Brightness Sun altitude
Rises 19:16:39 0° 202° (SSW) 3,651 6.6 -10.2°
Reaches altitude 10° 19:19:16 10° 209° (SSW) 2,706 5.9 -9.7°
Maximum altitude 19:25:09 45° 281° (W) 1,296 4.3 -8.6°
Drops below altitude 10° 19:31:06 10° 353° (N) 2,726 6.5 -7.5°
Sets 19:33:45 0° 360° (N) 3,680 7.3 -7.0°
